Wind_Speed
14 14 15 15 16 16 15 15 15 17 16 16 17 18 19 20 20 21 22 23 23 24 25 25 25 26 26 27 27 28 28 28 28 28 28 28 28 30 31 32 32 33 32 33
14 14 15 14 14 14 14 14 14 15 15 15 16 17 17 19 20 20 21 22 22 23 23 24 25 25 26 26 27 28 28 28 27 27 28 29 29 30 31 32 32 32 33 33
14 14 14 13 13 13 13 13 14 14 14 14 14 15 17 18 19 20 21 21 21 22 22 23 25 26 27 27 27 28 28 29 28 27 28 28 29 30 30 31 32 32 33 33
14 13 13 12 12 12 12 13 13 13 11 12 12 11 16 17 18 19 20 21 21 22 23 24 24 25 26 27 27 27 27 27 27 27 28 28 29 30 30 31 32 32 33 33
13 12 12 12 12 12 13 13 12 12 12 12 13 11 13 16 17 18 19 19 20 21 22 22 23 24 25 26 27 27 28 28 28 28 29 29 29 30 31 31 32 33 33 33
12 11 11 12 12 12 12 11 11 11 11 11 13 12 12 15 16 17 17 18 19 20 21 22 22 23 24 25 26 27 28 28 29 30 30 30 30 30 30 31 31 31 32 32
10 11 11 11 11 11 11 9 8 9 10 11 13 12 13 15 15 16 17 18 19 20 21 22 23 23 24 25 26 26 27 28 29 30 30 31 32 32 31 31 31 30 30 30
9 10 11 11 11 11 10 10 9 10 10 11 14 13 14 14 15 16 17 18 19 20 21 22 22 23 24 25 25 25 26 27 28 29 30 31 31 31 31 31 30 30 30 30
10 11 11 10 11 11 10 10 11 10 10 11 13 14 15 15 15 16 17 18 19 20 22 22 22 23 23 24 25 26 27 28 29 29 29 30 30 30 31 30 30 30 29 29
11 11 11 10 10 11 11 11 11 10 10 10 11 13 14 15 16 17 18 20 21 21 22 23 23 24 25 25 26 27 27 27 28 28 29 29 29 29 29 28 29 29 29 29
11 11 11 11 10 11 11 12 11 11 12 11 11 13 16 17 18 18 20 21 22 22 23 23 24 25 26 26 26 26 26 26 25 25 26 27 28 27 27 26 27 28 27 27
12 12 12 12 12 12 12 12 12 12 13 13 13 16 17 18 19 20 21 22 23 23 24 25 25 26 25 25 25 25 25 25 25 24 25 25 26 26 25 25 25 26 26 25
12 12 11 11 12 12 12 12 12 13 14 14 14 17 19 19 20 21 21 22 23 24 25 25 26 26 25 25 25 25 25 25 24 24 24 25 25 24 24 24 23 24 24 24
13 13 12 12 13 14 13 13 13 13 13 14 15 17 20 20 21 21 22 23 24 25 26 26 27 27 27 26 26 26 25 25 24 24 24 24 23 23 22 22 22 23 23 23
14 13 13 14 15 14 14 14 14 14 15 15 16 18 19 20 21 22 23 25 25 26 27 27 27 27 26 26 26 25 25 24 24 23 23 22 22 21 21 21 21 21 21 20
14 14 13 13 13 13 13 14 14 15 15 16 17 19 20 21 22 23 25 26 27 27 27 27 27 27 26 26 25 25 24 23 22 22 22 21 20 19 20 20 20 20 20 20
14 14 13 13 13 12 13 14 14 15 15 17 18 20 21 22 23 25 26 27 27 27 27 27 27 26 25 24 23 22 21 21 20 20 20 20 19 19 19 20 21 20 20 20
13 12 12 12 12 12 13 13 14 15 16 18 19 20 22 24 25 26 27 28 27 27 26 26 25 24 23 22 20 19 18 18 17 17 17 18 18 17 17 17 18 18 18 18
12 11 11 11 12 12 13 13 14 15 17 18 20 22 23 25 26 27 27 27 26 25 25 24 23 21 20 19 18 16 15 15 15 14 15 15 15 15 15 16 16 18 18 18
12 12 10 10 11 11 12 12 13 15 17 18 20 22 24 25 27 27 26 26 25 24 23 21 20 18 17 15 14 13 12 11 12 12 13 14 13 13 14 15 15 15 15 16
11 11 10 10 11 11 12 11 12 14 17 19 21 23 24 25 26 26 25 24 23 21 19 18 16 15 13 12 10 9 8 8 8 9 10 11 12 12 13 13 14 13 13 12
10 10 10 9 10 11 11 12 13 15 17 19 21 22 23 24 24 24 23 22 20 18 16 14 12 10 9 8 7 6 5 6 6 7 8 10 10 11 11 11 12 12 11 10
9 9 9 9 10 9 10 11 13 15 17 19 21 22 22 23 22 22 21 19 17 14 12 10 8 7 6 5 5 4 3 4 5 6 7 9 9 9 8 9 9 9 9 9
8 8 8 8 8 9 9 11 13 15 17 19 20 21 21 21 20 19 18 15 13 10 8 6 5 3 2 2 3 3 3 3 5 6 7 8 8 8 8 8 7 7 7 7
7 7 8 8 7 8 9 10 13 15 17 18 19 20 19 18 17 16 13 12 10 7 5 3 2 2 2 2 3 3 4 5 5 6 8 8 8 8 7 7 7 6 5 5
5 5 6 7 7 7 8 10 12 14 16 17 18 17 17 15 14 13 11 10 8 6 4 3 3 3 3 3 4 5 6 6 7 8 8 8 9 8 8 7 7 6 5 4
Wind_Direction
218 216 215 214 211 213 216 219 226 233 235 236 238 242 245 248 251 253 256 259 262 264 265 265 266 267 267 268 268 269 269 268 267 266 263 263 263 262 262 261 261 257 257 258
211 214 215 215 214 215 217 221 230 237 238 239 244 248 251 253 255 257 259 262 264 267 267 267 266 266 266 266 267 269 269 268 267 265 265 263 263 263 262 262 261 259 258 259
207 214 214 214 215 215 218 219 229 239 246 247 250 256 257 255 256 258 260 262 264 266 267 269 268 266 266 266 266 266 267 267 266 266 266 263 263 262 263 261 260 260 259 259
209 211 211 212 214 214 220 225 233 242 245 252 253 252 263 259 258 259 262 264 265 267 270 272 271 267 265 265 266 267 266 265 265 266 266 262 263 262 262 261 259 259 258 258
210 210 211 212 215 214 221 228 235 243 245 249 260 251 261 262 261 262 265 268 269 271 273 274 273 270 267 266 266 267 267 265 265 266 265 263 263 263 262 262 261 259 257 257
208 209 211 214 219 222 227 233 241 249 252 256 256 256 260 264 264 266 268 270 272 275 276 277 276 273 270 269 269 269 269 268 266 265 265 264 264 264 262 262 262 261 258 257
206 210 215 219 222 227 230 231 244 255 256 256 260 261 257 264 266 269 272 273 274 277 280 280 278 276 273 271 271 271 271 269 267 266 266 264 264 264 262 262 261 259 256 256
204 218 220 221 223 229 231 225 226 237 249 256 272 268 266 268 269 272 274 276 278 280 281 281 279 277 275 274 273 273 273 271 269 268 266 264 265 264 262 261 258 257 256 254
201 221 226 226 229 229 234 230 234 246 257 260 265 272 273 271 273 275 278 280 282 282 282 283 282 280 279 278 276 274 273 273 271 269 267 265 264 263 262 259 256 254 253 252
211 219 228 231 235 237 237 242 250 253 259 265 272 278 276 276 276 280 282 283 285 285 284 283 283 282 283 282 279 278 275 275 274 270 267 266 266 264 260 259 255 253 251 251
220 222 233 236 237 243 244 248 252 255 256 262 269 273 276 280 280 282 283 285 287 287 286 285 284 284 284 283 281 278 277 277 275 271 268 264 263 262 259 257 255 253 251 250
223 225 233 241 241 242 246 251 257 263 269 273 276 280 280 283 283 285 287 288 290 290 289 288 287 287 286 284 282 279 279 278 276 272 270 265 262 260 259 257 254 250 248 247
225 229 234 247 253 251 252 257 263 267 271 277 282 284 284 284 285 287 289 291 292 292 292 291 290 288 287 286 283 281 279 278 276 272 268 265 261 259 257 256 251 247 244 245
228 230 231 235 243 249 255 260 267 271 275 282 283 282 287 287 288 290 292 294 295 295 295 294 293 290 288 286 284 283 281 279 276 271 267 263 260 257 254 252 247 245 244 244
228 231 235 236 242 249 255 262 268 273 276 281 284 287 291 292 293 295 297 298 298 298 297 296 295 292 289 287 285 282 280 278 274 269 266 261 256 251 248 245 243 244 243 241
230 231 237 244 247 254 259 265 270 275 279 283 288 291 293 296 297 298 299 300 300 300 299 298 296 294 291 288 285 282 279 276 271 265 261 255 253 248 243 241 238 240 240 241
232 234 239 247 254 258 262 267 271 276 280 285 289 292 296 299 301 302 303 303 302 302 301 299 297 295 292 289 285 281 276 273 266 260 256 252 251 246 239 236 235 237 240 241
234 237 245 248 250 257 263 265 271 277 283 289 293 297 300 302 304 305 306 305 304 303 302 300 297 295 292 287 284 279 275 270 264 255 250 248 246 242 233 231 234 236 241 243
231 235 242 244 252 261 265 269 275 280 286 293 298 302 303 304 306 308 308 307 306 304 302 299 297 294 291 286 281 278 273 267 261 252 240 240 239 235 230 228 232 236 240 243
231 233 238 244 250 256 264 273 283 289 294 300 304 307 308 308 309 310 310 309 307 305 303 300 298 294 289 285 280 276 271 260 253 244 235 232 228 226 225 225 231 237 238 239
228 233 238 245 249 256 267 277 287 295 301 305 308 311 312 311 312 313 312 311 309 307 304 302 299 293 286 280 278 274 261 251 244 231 223 220 223 221 221 219 225 230 233 234
227 232 235 245 251 259 273 282 290 297 304 308 311 313 314 315 316 317 316 314 312 310 306 303 298 291 283 273 268 258 251 242 227 215 211 213 213 214 212 214 213 218 224 225
220 225 230 240 253 268 279 286 295 303 308 313 316 318 318 319 320 321 321 319 317 314 309 305 300 292 279 265 252 238 234 216 206 197 197 197 199 202 205 201 200 210 209 208
213 218 227 239 255 271 283 292 301 308 315 319 321 322 322 324 326 326 326 326 326 323 318 312 308 312 286 236 212 190 172 167 167 173 175 177 179 182 183 184 189 194 199 205
215 223 229 239 255 275 293 304 309 314 319 322 325 328 329 331 332 334 335 336 340 340 339 345 6 35 83 116 142 159 158 153 150 153 163 165 164 166 168 168 171 177 184 194
217 224 229 244 259 279 298 309 315 321 325 327 330 333 336 339 342 345 346 350 357 6 22 43 65 85 92 116 131 137 142 142 141 143 149 156 158 159 158 157 160 160 162 170
Height
5799 5803 5805 5807 5810 5813 5816 5818 5820 5822 5823 5826 5827 5829 5830 5831 5833 5834 5835 5835 5836 5836 5836 5837 5837 5837 5837 5836 5836 5836 5836 5836 5836 5836 5836 5836 5836 5836 5836 5837 5837 5838 5839 5841
5797 5800 5802 5804 5807 5810 5813 5816 5817 5819 5820 5823 5824 5825 5826 5827 5828 5829 5830 5830 5831 5831 5831 5831 5831 5830 5830 5830 5830 5829 5829 5829 5829 5829 5829 5829 5829 5829 5829 5830 5830 5831 5832 5833
5795 5797 5799 5802 5805 5808 5811 5813 5815 5817 5818 5819 5822 5823 5823 5824 5824 5825 5825 5826 5826 5825 5825 5825 5824 5824 5823 5823 5823 5823 5822 5822 5822 5822 5822 5822 5822 5822 5822 5822 5822 5823 5824 5825
5792 5795 5798 5800 5803 5806 5809 5810 5812 5814 5816 5818 5819 5822 5820 5819 5820 5820 5820 5820 5820 5820 5819 5818 5817 5817 5816 5816 5815 5815 5815 5814 5814 5814 5814 5814 5814 5814 5814 5814 5814 5815 5816 5817
5791 5793 5796 5799 5801 5804 5806 5808 5810 5811 5813 5815 5816 5818 5819 5815 5815 5815 5815 5815 5814 5814 5813 5811 5810 5810 5809 5809 5808 5808 5807 5807 5807 5807 5807 5807 5807 5807 5807 5807 5807 5807 5808 5809
5790 5792 5794 5797 5799 5801 5803 5806 5807 5809 5811 5813 5813 5814 5816 5812 5811 5810 5810 5809 5809 5808 5806 5805 5804 5803 5802 5802 5801 5800 5800 5800 5800 5800 5800 5800 5799 5799 5799 5799 5800 5800 5801 5802
5789 5791 5793 5795 5797 5799 5801 5805 5808 5809 5810 5811 5809 5809 5810 5807 5806 5806 5805 5804 5803 5802 5800 5799 5798 5796 5796 5795 5794 5793 5793 5792 5792 5792 5792 5792 5792 5792 5792 5792 5792 5792 5793 5794
5789 5791 5791 5793 5795 5798 5799 5802 5806 5808 5808 5808 5804 5804 5805 5803 5802 5801 5800 5799 5798 5796 5794 5793 5791 5790 5789 5788 5787 5786 5786 5785 5784 5784 5784 5784 5784 5784 5784 5784 5785 5785 5786 5787
5788 5790 5789 5791 5793 5795 5797 5799 5800 5802 5802 5803 5803 5801 5799 5798 5797 5796 5795 5794 5792 5791 5789 5787 5785 5784 5782 5781 5780 5779 5778 5777 5777 5776 5776 5776 5776 5776 5776 5777 5777 5778 5778 5779
5784 5787 5788 5789 5791 5792 5794 5795 5796 5798 5799 5800 5800 5798 5797 5794 5793 5792 5790 5789 5787 5785 5783 5781 5779 5778 5776 5774 5773 5772 5771 5770 5768 5768 5768 5768 5768 5769 5769 5769 5769 5770 5772 5773
5782 5785 5786 5787 5789 5790 5791 5792 5793 5794 5795 5796 5796 5797 5791 5790 5788 5787 5785 5783 5781 5779 5777 5775 5773 5771 5769 5768 5766 5764 5763 5762 5761 5760 5760 5761 5761 5761 5761 5762 5763 5764 5765 5766
5779 5782 5784 5785 5786 5786 5788 5789 5789 5791 5791 5790 5791 5792 5786 5785 5783 5781 5779 5777 5775 5773 5771 5768 5766 5764 5762 5760 5759 5758 5756 5755 5754 5753 5753 5753 5754 5754 5754 5755 5756 5757 5759 5761
5777 5779 5781 5783 5785 5784 5784 5785 5785 5786 5786 5786 5786 5787 5781 5779 5778 5776 5774 5771 5769 5766 5764 5761 5759 5757 5755 5753 5752 5750 5749 5748 5747 5746 5746 5746 5747 5747 5748 5749 5750 5751 5753 5755
5774 5776 5779 5781 5781 5781 5781 5782 5782 5782 5782 5782 5781 5780 5777 5774 5772 5770 5768 5765 5763 5760 5757 5754 5752 5750 5748 5746 5744 5743 5742 5741 5740 5739 5739 5739 5740 5740 5741 5743 5744 5746 5748 5750
5771 5773 5774 5776 5777 5778 5778 5778 5778 5778 5778 5777 5776 5774 5772 5769 5767 5765 5762 5759 5756 5753 5750 5747 5744 5742 5740 5738 5737 5735 5734 5733 5733 5732 5732 5733 5733 5734 5736 5737 5739 5741 5743 5745
5767 5769 5771 5772 5773 5774 5774 5775 5774 5774 5773 5772 5771 5769 5766 5764 5761 5759 5756 5752 5749 5746 5742 5739 5736 5734 5732 5730 5729 5727 5726 5726 5725 5725 5726 5726 5728 5729 5730 5732 5734 5736 5738 5740
5764 5766 5768 5770 5770 5771 5771 5771 5771 5770 5769 5768 5766 5764 5761 5758 5756 5752 5749 5745 5742 5738 5735 5732 5729 5726 5724 5723 5721 5720 5719 5719 5718 5719 5720 5721 5722 5724 5725 5727 5730 5732 5734 5736
5761 5763 5765 5766 5768 5768 5770 5767 5767 5766 5764 5763 5761 5759 5756 5753 5750 5746 5742 5738 5734 5731 5728 5724 5721 5719 5717 5716 5714 5714 5713 5713 5712 5713 5714 5716 5717 5719 5721 5723 5726 5728 5730 5732
5758 5760 5762 5763 5764 5765 5765 5763 5763 5762 5760 5758 5756 5753 5750 5746 5743 5739 5735 5731 5727 5724 5720 5717 5715 5712 5711 5709 5709 5708 5708 5707 5708 5708 5710 5711 5713 5715 5717 5719 5722 5724 5726 5728
5755 5757 5759 5760 5761 5762 5762 5760 5759 5759 5756 5754 5751 5748 5744 5740 5737 5733 5728 5724 5720 5717 5714 5711 5709 5707 5705 5704 5704 5703 5703 5703 5704 5704 5706 5708 5710 5712 5714 5716 5718 5720 5722 5725
5752 5754 5756 5757 5758 5758 5758 5756 5756 5756 5753 5749 5746 5742 5739 5735 5731 5727 5722 5718 5714 5711 5708 5705 5703 5702 5701 5700 5700 5699 5699 5700 5701 5702 5703 5705 5707 5709 5711 5713 5716 5718 5720 5722
5750 5752 5753 5754 5755 5757 5754 5753 5753 5751 5748 5744 5741 5738 5733 5729 5725 5720 5716 5712 5709 5706 5703 5701 5699 5698 5697 5697 5697 5697 5697 5698 5698 5700 5701 5703 5705 5707 5709 5711 5713 5716 5718 5719
5747 5750 5751 5752 5754 5752 5751 5750 5749 5746 5744 5741 5737 5733 5729 5724 5720 5716 5712 5708 5705 5702 5700 5698 5696 5695 5695 5695 5695 5696 5696 5696 5697 5699 5700 5702 5704 5706 5708 5710 5712 5714 5716 5718
5745 5746 5748 5749 5749 5749 5748 5747 5745 5743 5740 5737 5733 5729 5724 5720 5716 5712 5708 5705 5702 5699 5697 5696 5695 5694 5694 5694 5694 5695 5696 5696 5697 5698 5700 5701 5703 5705 5707 5709 5711 5713 5715 5716
5743 5745 5746 5746 5747 5747 5746 5744 5742 5740 5737 5733 5729 5725 5721 5717 5713 5709 5706 5703 5700 5698 5696 5695 5695 5694 5694 5694 5694 5695 5696 5696 5697 5698 5700 5702 5704 5706 5708 5709 5711 5713 5714 5716
5742 5743 5744 5745 5745 5745 5744 5742 5740 5737 5734 5730 5726 5722 5718 5715 5711 5708 5705 5702 5700 5698 5696 5696 5695 5695 5695 5694 5695 5695 5696 5697 5698 5700 5701 5703 5705 5706 5708 5710 5711 5713 5714 5716